Location: Peterborough
(44.3091°N, 78.3197°W)
Time: 07:03:25
(UTC-04:00)

Vanguard 1 Rocket - Pass Details

Date: 29 March 2023
Orbit: 655 x 4220 km, 34.3° (Epoch: 04 June)

Event Time Altitude Azimuth Distance (km) Brightness Sun altitude
Rises 22:32:33 0° 232° (SW) 8,374 12.4 -29.5°
Reaches altitude 10° 22:38:35 10° 229° (SW) 7,417 12.1 -30.3°
Maximum altitude 23:02:37 52° 162° (SSE) 4,104 10.2 -33.3°
Enters shadow 23:05:43 49° 140° (SE) 3,985 10.0 -33.7°
Drops below altitude 10° 23:18:19 10° 92° (E) 5,099 - -35.1°
Sets 23:21:32 0° 88° (E) 5,723 - -35.4°
